Flag for Spain Weather past 2 weeks in Pamplona, Spain

Now
82 °F

Sunny.


Feels Like: 82 °F
Forecast: 69 / 94 °F
Wind: 1 mph from North

Location: Pamplona / Noain

Current Time: Jun 30, 2015 at 11:30:10 AM

Latest Report: Jun 30, 2015 at 11:00 AM


Visibility: 10 mi

Pressure: 30.07 "Hg

Humidity: 42%

Dew point: 57 °F

Location of PamplonaLocation

Historic Weather in Pamplona — Graph

°F

Pamplona temperature yesterday

Maximum temperature yesterday: 95 °F (at 5:00 PM)
Minimum temperature yesterday: 61 °F (at 5:30 AM)
Average temperature yesterday: 81 °F

Past Weeks' High & Low Weather Summary

 TemperatureHumidityPressure
High95 °F (Jun 29, 5:00 PM)100% (Jun 22, 5:30 AM)30.33 "Hg (Jun 22, 5:30 AM)
Low52 °F (Jun 21, 6:00 AM)23% (Jun 26, 3:00 PM)29.92 "Hg (Jun 22, 5:00 PM)
Average69 °F64%30.15 "Hg
* Reported Jun 15 10:00 AM — Jun 30 10:30 AM, Pamplona, Weather by CustomWeather, © 2015

Note: Actual official high and low records may vary slightly from our data, if they occured in-between our weather recording intervals... More about our weather records

Advertising

Pamplona weather history for previous 24 hours

 ConditionsComfort  
Time TempWeatherWind HumidityBarometerVisibility
10:30 AM
Tue, Jun 30
79 °FSunny.1 mph48%30.07 "Hg10 mi
10:00 AM79 °FSunny.1 mph51%30.07 "Hg10 mi
9:30 AM75 °FSunny.2 mph57%30.07 "Hg10 mi
9:00 AM73 °FSunny.2 mph61%30.07 "Hg10 mi
8:30 AM73 °FSunny.1 mph61%30.07 "Hg10 mi
8:00 AM70 °FSunny.1 mph78%30.07 "Hg10 mi
7:30 AM68 °FClear.No wind78%30.07 "Hg10 mi
7:00 AM66 °FClear.1 mph83%30.07 "Hg10 mi
6:30 AM66 °FClear.No wind83%30.07 "Hg10 mi
6:00 AM68 °FClear.No wind83%30.07 "Hg10 mi
5:30 AM68 °FClear.1 mph83%30.07 "Hg10 mi
12:00 AM79 °FClear.No wind65%30.07 "Hg10 mi
11:30 PM
Mon, Jun 29
79 °FClear.1 mph65%30.07 "Hg10 mi
11:00 PM81 °FClear.No wind66%30.07 "Hg10 mi
10:30 PM82 °FSunny.1 mph62%30.07 "Hg10 mi
10:00 PM84 °FSunny.No wind55%30.07 "Hg10 mi
9:30 PM88 °FSunny.5 mph49%30.07 "Hg10 mi
9:00 PM88 °FPassing clouds.6 mph52%30.04 "HgN/A
8:30 PM90 °FSunny.7 mph46%30.04 "Hg10 mi
8:00 PM93 °FPassing clouds.7 mph36%30.04 "HgN/A
7:30 PM95 °FSunny.2 mph30%30.04 "Hg10 mi
7:00 PM95 °FPassing clouds.5 mph28%30.04 "HgN/A
6:30 PM95 °FSunny.2 mph30%30.07 "Hg10 mi
6:00 PM95 °FSunny.1 mph28%30.07 "Hg10 mi
5:30 PM95 °FPassing clouds.3 mph30%30.07 "HgN/A
5:00 PM95 °FSunny.2 mph28%30.07 "Hg10 mi
4:30 PM93 °FSunny.2 mph30%30.09 "Hg10 mi
4:00 PM93 °FSunny.1 mph32%30.09 "Hg10 mi
3:30 PM91 °FSunny.2 mph34%30.09 "Hg10 mi
3:00 PM91 °FPassing clouds.3 mph34%30.12 "HgN/A
2:30 PM90 °FSunny.1 mph38%30.12 "Hg10 mi
2:00 PM88 °FSunny.No wind38%30.15 "Hg10 mi
1:30 PM86 °FSunny.1 mph43%30.15 "Hg10 mi
1:00 PM82 °FSunny.1 mph48%30.15 "Hg10 mi
12:30 PM81 °FSunny.1 mph54%30.18 "Hg10 mi
12:00 PM77 °FSunny.1 mph54%30.18 "Hg10 mi
11:30 AM75 °FSunny.2 mph57%30.18 "Hg10 mi
11:00 AM73 °FSunny.1 mph61%30.21 "Hg10 mi
Weather by CustomWeather, © 2015

See weather overviewHow to use our weather pages